| time (UTC) | temp C | wind direction | speed KPH | gust KPH | rain 1hr cm | rain 24hr cm | rain mn cm | humidity % | barometer mb |
| 20260505023517 | 12 | 185 | 3.2 | 8.0 | 0.00 | 0.00 | 0.00 | 60 | 1009.1 |
| 20260505023017 | 12 | 196 | 3.2 | 4.8 | 0.00 | 0.00 | 0.00 | 60 | 1009.1 |
| 20260505022517 | 12 | 195 | 3.2 | 9.7 | 0.00 | 0.00 | 0.00 | 60 | 1009.2 |
| 20260505022017 | 12 | 206 | 4.8 | 12.9 | 0.00 | 0.00 | 0.00 | 59 | 1009.3 |
| 20260505021517 | 12 | 226 | 3.2 | 9.7 | 0.00 | 0.00 | 0.00 | 59 | 1009.3 |
| 20260505021016 | 12 | 175 | 1.6 | 4.8 | 0.00 | 0.00 | 0.00 | 59 | 1009.3 |
| 20260505020517 | 13 | 187 | 3.2 | 8.0 | 0.00 | 0.00 | 0.00 | 57 | 1009.3 |
| 20260505020017 | 13 | 182 | 3.2 | 9.7 | 0.00 | 0.00 | 0.00 | 56 | 1009.3 |
| 20260505015517 | 13 | 191 | 3.2 | 8.0 | 0.00 | 0.00 | 0.00 | 56 | 1009.1 |
| 20260505015017 | 13 | 235 | 1.6 | 4.8 | 0.00 | 0.00 | 0.00 | 55 | 1009.1 |
| 20260505014517 | 13 | 157 | 3.2 | 8.0 | 0.00 | 0.00 | 0.00 | 55 | 1009.2 |
| 20260505014018 | 13 | 205 | 3.2 | 12.9 | 0.00 | 0.00 | 0.00 | 55 | 1009.1 |
| 20260505013517 | 13 | 193 | 1.6 | 9.7 | 0.00 | 0.00 | 0.00 | 55 | 1009.1 |
| 20260505012516 | 13 | 224 | 3.2 | 12.9 | 0.00 | 0.00 | 0.00 | 53 | 1008.9 |
| 20260505012017 | 13 | 199 | 3.2 | 9.7 | 0.00 | 0.00 | 0.00 | 52 | 1008.9 |
| 20260505011517 | 13 | 142 | 3.2 | 11.3 | 0.00 | 0.00 | 0.00 | 52 | 1008.7 |
| 20260505010517 | 13 | 115 | 4.8 | 12.9 | 0.00 | 0.00 | 0.00 | 52 | 1008.7 |
| 20260505005516 | 14 | 155 | 3.2 | 9.7 | 0.00 | 0.00 | 0.00 | 51 | 1008.3 |
| 20260505005017 | 14 | 132 | 4.8 | 11.3 | 0.00 | 0.00 | 0.00 | 49 | 1008.2 |
| 20260505004516 | 14 | 184 | 4.8 | 12.9 | 0.00 | 0.00 | 0.00 | 49 | 1008.2 |
| 20260505004017 | 15 | 201 | 3.2 | 8.0 | 0.00 | 0.00 | 0.00 | 48 | 1008.2 |
| 20260505003516 | 15 | 180 | 1.6 | 8.0 | 0.00 | 0.00 | 0.00 | 49 | 1008.2 |
| 20260505003017 | 15 | 181 | 3.2 | 16.1 | 0.00 | 0.00 | 0.00 | 48 | 1007.9 |
| 20260505002517 | 15 | 232 | 4.8 | 11.3 | 0.00 | 0.00 | 0.00 | 48 | 1007.7 |
| 20260505002016 | 15 | 216 | 3.2 | 9.7 | 0.00 | 0.00 | 0.00 | 47 | 1007.6 |
| 20260505001017 | 15 | 202 | 3.2 | 12.9 | 0.00 | 0.00 | 0.00 | 47 | 1007.5 |
| 20260505000517 | 15 | 269 | 4.8 | 12.9 | 0.00 | 0.00 | 0.00 | 45 | 1007.1 |
| 20260504235016 | 15 | 216 | 3.2 | 8.0 | 0.00 | 0.00 | 0.00 | 45 | 1007.1 |
| 20260504234517 | 16 | 194 | 1.6 | 9.7 | 0.00 | 0.00 | 0.00 | 46 | 1006.9 |
| 20260504234016 | 16 | 123 | 4.8 | 16.1 | 0.00 | 0.00 | 0.00 | 44 | 1006.9 |
| 20260504233517 | 16 | 180 | 6.4 | 14.5 | 0.00 | 0.00 | 0.00 | 43 | 1006.8 |
| 20260504233016 | 16 | 168 | 3.2 | 9.7 | 0.00 | 0.00 | 0.00 | 43 | 1006.6 |
| 20260504232517 | 16 | 199 | 4.8 | 12.9 | 0.00 | 0.00 | 0.00 | 42 | 1006.6 |
| 20260504232016 | 16 | 200 | 8.0 | 12.9 | 0.00 | 0.00 | 0.00 | 43 | 1006.6 |
| 20260504231516 | 17 | 248 | 8.0 | 14.5 | 0.00 | 0.00 | 0.00 | 43 | 1006.7 |
| 20260504230516 | 17 | 221 | 3.2 | 8.0 | 0.00 | 0.00 | 0.00 | 42 | 1006.4 |
| 20260504230017 | 17 | 214 | 3.2 | 12.9 | 0.00 | 0.00 | 0.00 | 42 | 1006.2 |
| 20260504225516 | 17 | 3 | 4.8 | 9.7 | 0.00 | 0.00 | 0.00 | 39 | 1006.2 |
| 20260504225017 | 17 | 206 | 6.4 | 19.3 | 0.00 | 0.00 | 0.00 | 39 | 1006.2 |
| 20260504224516 | 18 | 213 | 3.2 | 14.5 | 0.00 | 0.00 | 0.00 | 38 | 1006.1 |
| 20260504224017 | 18 | 167 | 4.8 | 11.3 | 0.00 | 0.00 | 0.00 | 38 | 1006.0 |
| 20260504223516 | 18 | 334 | 3.2 | 11.3 | 0.00 | 0.00 | 0.00 | 38 | 1005.8 |
| 20260504222517 | 18 | 241 | 4.8 | 14.5 | 0.00 | 0.00 | 0.00 | 37 | 1006.0 |
| 20260504222016 | 18 | 315 | 6.4 | 16.1 | 0.00 | 0.00 | 0.00 | 36 | 1005.9 |
| 20260504215517 | 19 | 244 | 3.2 | 11.3 | 0.00 | 0.00 | 0.00 | 33 | 1005.7 |
| 20260504215016 | 20 | 200 | 6.4 | 19.3 | 0.00 | 0.00 | 0.00 | 32 | 1005.7 |
| 20260504214516 | 20 | 200 | 4.8 | 12.9 | 0.00 | 0.00 | 0.00 | 31 | 1005.9 |
| 20260504214016 | 20 | 230 | 3.2 | 8.0 | 0.00 | 0.00 | 0.00 | 29 | 1005.7 |
| 20260504213016 | 21 | 252 | 3.2 | 9.7 | 0.00 | 0.00 | 0.00 | 30 | 1005.7 |
| 20260504212016 | 21 | 219 | 3.2 | 9.7 | 0.00 | 0.00 | 0.00 | 27 | 1005.5 |
| 20260504210516 | 21 | 216 | 4.8 | 11.3 | 0.00 | 0.00 | 0.00 | 26 | 1005.4 |
| 20260504210016 | 21 | 250 | 6.4 | 12.9 | 0.00 | 0.00 | 0.00 | 27 | 1005.5 |
| 20260504205516 | 21 | 228 | 4.8 | 11.3 | 0.00 | 0.00 | 0.00 | 26 | 1005.5 |
| 20260504205016 | 21 | 232 | 8.0 | 14.5 | 0.00 | 0.00 | 0.00 | 26 | 1005.6 |
| 20260504204516 | 21 | 248 | 4.8 | 12.9 | 0.00 | 0.00 | 0.00 | 26 | 1005.5 |
| 20260504204016 | 21 | 224 | 4.8 | 16.1 | 0.00 | 0.00 | 0.00 | 25 | 1005.4 |
| 20260504203517 | 21 | 267 | 4.8 | 16.1 | 0.00 | 0.00 | 0.00 | 25 | 1005.5 |
| 20260504203016 | 21 | 195 | 4.8 | 14.5 | 0.00 | 0.00 | 0.00 | 25 | 1005.7 |
| 20260504202517 | 21 | 231 | 6.4 | 14.5 | 0.00 | 0.00 | 0.00 | 26 | 1005.7 |
| 20260504202016 | 21 | 146 | 6.4 | 11.3 | 0.00 | 0.00 | 0.00 | 27 | 1005.6 |
| 20260504201516 | 21 | 218 | 4.8 | 16.1 | 0.00 | 0.00 | 0.00 | 25 | 1005.7 |
| 20260504201016 | 21 | 236 | 6.4 | 19.3 | 0.00 | 0.00 | 0.00 | 25 | 1005.7 |
| 20260504200516 | 22 | 232 | 1.6 | 11.3 | 0.00 | 0.00 | 0.00 | 28 | 1005.7 |
| 20260504200016 | 21 | 280 | 3.2 | 9.7 | 0.00 | 0.00 | 0.00 | 27 | 1005.8 |
| 20260504195516 | 21 | 232 | 3.2 | 9.7 | 0.00 | 0.00 | 0.00 | 26 | 1005.8 |
| 20260504195016 | 21 | 256 | 8.0 | 14.5 | 0.00 | 0.00 | 0.00 | 26 | 1005.8 |
| 20260504194015 | 22 | 185 | 8.0 | 14.5 | 0.00 | 0.00 | 0.00 | 23 | 1005.7 |
| 20260504193515 | 21 | 210 | 6.4 | 16.1 | 0.00 | 0.00 | 0.00 | 24 | 1005.7 |
| 20260504192516 | 21 | 232 | 6.4 | 20.9 | 0.00 | 0.00 | 0.00 | 24 | 1005.7 |
| 20260504192016 | 22 | 232 | 4.8 | 11.3 | 0.00 | 0.00 | 0.00 | 27 | 1005.7 |
| 20260504191515 | 21 | 237 | 6.4 | 12.9 | 0.00 | 0.00 | 0.00 | 25 | 1005.7 |
| 20260504191016 | 22 | 152 | 3.2 | 14.5 | 0.00 | 0.00 | 0.00 | 23 | 1005.7 |
| 20260504190016 | 21 | 242 | 6.4 | 22.5 | 0.00 | 0.00 | 0.00 | 25 | 1005.8 |
| 20260504185516 | 21 | 183 | 8.0 | 19.3 | 0.00 | 0.00 | 0.00 | 25 | 1005.9 |
| 20260504185016 | 21 | 227 | 8.0 | 14.5 | 0.00 | 0.00 | 0.00 | 25 | 1005.9 |
| 20260504184516 | 21 | 150 | 4.8 | 14.5 | 0.00 | 0.00 | 0.00 | 24 | 1005.9 |
| 20260504184016 | 21 | 255 | 8.0 | 19.3 | 0.00 | 0.00 | 0.00 | 24 | 1006.0 |
| 20260504183516 | 21 | 238 | 6.4 | 14.5 | 0.00 | 0.00 | 0.00 | 23 | 1006.0 |
| 20260504183016 | 21 | 174 | 4.8 | 14.5 | 0.00 | 0.00 | 0.00 | 23 | 1006.2 |
| 20260504182015 | 21 | 182 | 6.4 | 14.5 | 0.00 | 0.00 | 0.00 | 24 | 1006.2 |
| 20260504181516 | 21 | 213 | 6.4 | 14.5 | 0.00 | 0.00 | 0.00 | 23 | 1006.1 |
| 20260504181016 | 21 | 239 | 6.4 | 24.1 | 0.00 | 0.00 | 0.00 | 25 | 1006.3 |
| 20260504180515 | 21 | 266 | 6.4 | 14.5 | 0.00 | 0.00 | 0.00 | 23 | 1006.3 |
| 20260504180016 | 21 | 136 | 6.4 | 16.1 | 0.00 | 0.00 | 0.00 | 23 | 1006.2 |
| 20260504175515 | 21 | 294 | 6.4 | 14.5 | 0.00 | 0.00 | 0.00 | 23 | 1006.6 |
| 20260504175016 | 21 | 243 | 8.0 | 11.3 | 0.00 | 0.00 | 0.00 | 24 | 1006.4 |
| 20260504174016 | 21 | 230 | 8.0 | 14.5 | 0.00 | 0.00 | 0.00 | 25 | 1006.6 |
| 20260504173516 | 20 | 261 | 6.4 | 12.9 | 0.00 | 0.00 | 0.00 | 24 | 1006.5 |
| 20260504173016 | 20 | 228 | 8.0 | 22.5 | 0.00 | 0.00 | 0.00 | 24 | 1006.4 |
| 20260504172515 | 20 | 221 | 8.0 | 16.1 | 0.00 | 0.00 | 0.00 | 28 | 1006.6 |
| 20260504172016 | 20 | 231 | 8.0 | 16.1 | 0.00 | 0.00 | 0.00 | 25 | 1006.6 |
| 20260504171515 | 20 | 216 | 6.4 | 14.5 | 0.00 | 0.00 | 0.00 | 26 | 1006.6 |
| 20260504171015 | 20 | 244 | 8.0 | 14.5 | 0.00 | 0.00 | 0.00 | 24 | 1006.6 |
| 20260504170516 | 20 | 229 | 8.0 | 22.5 | 0.00 | 0.00 | 0.00 | 25 | 1006.6 |
| 20260504151015 | 18 | 303 | 8.0 | 19.3 | 0.00 | 0.00 | 0.00 | 27 | 1007.8 |
| 20260504150516 | 18 | 271 | 4.8 | 9.7 | 0.00 | 0.00 | 0.00 | 29 | 1008.0 |
| 20260504140515 | 17 | 235 | 6.4 | 11.3 | 0.00 | 0.00 | 0.00 | 34 | 1008.5 |
| 20260504130515 | 15 | 219 | 3.2 | 9.7 | 0.00 | 0.00 | 0.00 | 39 | 1009.2 |
| 20260504110515 | 8 | 213 | 3.2 | 8.0 | 0.00 | 0.00 | 0.00 | 52 | 1009.5 |
| 20260504100515 | 7 | 244 | 3.2 | 3.2 | 0.00 | 0.00 | 0.00 | 53 | 1009.4 |
| 20260504081515 | 6 | 222 | 1.6 | 1.6 | 0.00 | 0.00 | 0.00 | 63 | 1009.1 |
| 20260504081014 | 6 | 227 | 0.0 | 0.0 | 0.00 | 0.00 | 0.00 | 56 | 1009.2 |
| 20260504080514 | 6 | 243 | 0.0 | 0.0 | 0.00 | 0.00 | 0.00 | 56 | 1009.1 |
| 20260504050514 | 6 | 212 | 1.6 | 3.2 | 0.00 | 0.00 | 0.00 | 50 | 1008.9 |
| 20260504050014 | 6 | 229 | 3.2 | 3.2 | 0.00 | 0.00 | 0.00 | 50 | 1009.1 |
| 20260504045514 | 6 | 250 | 3.2 | 4.8 | 0.00 | 0.00 | 0.00 | 50 | 1009.1 |
| 20260504045014 | 6 | 240 | 3.2 | 4.8 | 0.00 | 0.00 | 0.00 | 52 | 1009.1 |
| 20260504044513 | 6 | 242 | 3.2 | 3.2 | 0.00 | 0.00 | 0.00 | 52 | 1009.0 |
| 20260504044013 | 5 | 240 | 3.2 | 4.8 | 0.00 | 0.00 | 0.00 | 51 | 1009.0 |
| 20260504043514 | 5 | 244 | 3.2 | 4.8 | 0.00 | 0.00 | 0.00 | 52 | 1009.0 |
| 20260504043013 | 5 | 246 | 3.2 | 4.8 | 0.00 | 0.00 | 0.00 | 52 | 1009.0 |
| 20260504042514 | 5 | 238 | 3.2 | 3.2 | 0.00 | 0.00 | 0.00 | 52 | 1009.0 |
| 20260504042013 | 5 | 247 | 3.2 | 3.2 | 0.00 | 0.00 | 0.00 | 53 | 1008.9 |
| 20260504041514 | 5 | 245 | 3.2 | 4.8 | 0.00 | 0.00 | 0.00 | 52 | 1008.9 |
| 20260504041014 | 5 | 249 | 3.2 | 4.8 | 0.00 | 0.00 | 0.00 | 52 | 1008.9 |
| 20260504040013 | 5 | 238 | 3.2 | 4.8 | 0.00 | 0.00 | 0.00 | 52 | 1008.6 |
| 20260504035514 | 5 | 252 | 3.2 | 4.8 | 0.00 | 0.00 | 0.00 | 53 | 1008.6 |
| 20260504035014 | 5 | 257 | 3.2 | 4.8 | 0.00 | 0.00 | 0.00 | 53 | 1008.6 |
| 20260504034513 | 5 | 258 | 3.2 | 4.8 | 0.00 | 0.00 | 0.00 | 53 | 1008.7 |
| 20260504034014 | 5 | 242 | 3.2 | 4.8 | 0.00 | 0.00 | 0.00 | 53 | 1008.7 |
| 20260504033014 | 5 | 238 | 3.2 | 4.8 | 0.00 | 0.00 | 0.00 | 54 | 1008.5 |
| 20260504032513 | 5 | 242 | 3.2 | 4.8 | 0.00 | 0.00 | 0.00 | 54 | 1008.5 |
| 20260504032013 | 5 | 247 | 3.2 | 4.8 | 0.00 | 0.00 | 0.00 | 54 | 1008.4 |
| 20260504031514 | 5 | 250 | 4.8 | 8.0 | 0.00 | 0.00 | 0.00 | 54 | 1008.4 |
| 20260504031013 | 5 | 255 | 1.6 | 4.8 | 0.00 | 0.00 | 0.00 | 55 | 1008.4 |
| 20260504025014 | 4 | 233 | 0.0 | 1.6 | 0.00 | 0.00 | 0.00 | 56 | 1008.4 |
| 20260504024513 | 4 | 239 | 0.0 | 0.0 | 0.00 | 0.00 | 0.00 | 56 | 1008.4 |